2023/02/15 00:00:00,93.5,-5.7
2023/02/15 00:10:00,93.6,-5.8
2023/02/15 00:20:00,93.5,-6.0
2023/02/15 00:30:00,93.3,-5.9
2023/02/15 00:40:00,93.5,-6.0
2023/02/15 00:50:00,94.1,-6.5
2023/02/15 01:00:00,95.8,-6.1
2023/02/15 01:10:00,96.6,-5.9
2023/02/15 01:20:00,96.8,-5.9
2023/02/15 01:30:00,96.8,-6.1
2023/02/15 01:40:00,96.9,-6.1
2023/02/15 01:50:00,96.8,-6.3
2023/02/15 02:00:00,96.7,-6.3
2023/02/15 02:10:00,96.5,-6.3
2023/02/15 02:20:00,96.4,-6.3
2023/02/15 02:30:00,96.7,-6.3
2023/02/15 02:40:00,96.7,-6.5
2023/02/15 02:50:00,96.9,-6.3
2023/02/15 03:00:00,97.0,-7.1
2023/02/15 03:10:00,96.9,-6.5
2023/02/15 03:20:00,96.8,-6.4
2023/02/15 03:30:00,96.7,-6.5
2023/02/15 03:40:00,96.7,-6.5
2023/02/15 03:50:00,96.6,-6.5
2023/02/15 04:00:00,96.6,-6.3
2023/02/15 04:10:00,96.6,-6.4
2023/02/15 04:20:00,96.7,-6.3
2023/02/15 04:30:00,96.7,-6.6
2023/02/15 04:40:00,96.6,-6.7
2023/02/15 04:50:00,96.5,-6.5
2023/02/15 05:00:00,96.6,-6.8
2023/02/15 05:10:00,97.7,-6.7
2023/02/15 05:20:00,98.7,-6.6
2023/02/15 05:30:00,98.9,-6.4
2023/02/15 05:40:00,99.0,-6.1
2023/02/15 05:50:00,99.3,-6.4
2023/02/15 06:00:00,99.2,-6.3
2023/02/15 06:10:00,99.3,-6.2
2023/02/15 06:20:00,100.0,-6.3
2023/02/15 06:30:00,100.4,-6.1
2023/02/15 06:40:00,100.6,-6.2
2023/02/15 06:50:00,100.5,-6.3
2023/02/15 07:00:00,100.8,-6.3
2023/02/15 07:10:00,101.5,-6.0
2023/02/15 07:20:00,101.4,-6.3
2023/02/15 07:30:00,101.6,-6.1
2023/02/15 07:40:00,101.7,-5.8
2023/02/15 07:50:00,102.1,-5.7
2023/02/15 08:00:00,102.8,-5.7
2023/02/15 08:10:00,103.4,-5.4
2023/02/15 08:20:00,103.4,-4.9
2023/02/15 08:30:00,103.2,-4.7
2023/02/15 08:40:00,103.2,-4.7
2023/02/15 08:50:00,103.1,-4.8
2023/02/15 09:00:00,103.1,-4.0
2023/02/15 09:10:00,103.0,-3.7
2023/02/15 09:20:00,103.0,-4.2
2023/02/15 09:30:00,103.4,-3.8
2023/02/15 09:40:00,103.7,-3.3
2023/02/15 09:50:00,104.7,-2.8
2023/02/15 10:00:00,105.7,-3.6
2023/02/15 10:10:00,106.0,-3.9
2023/02/15 10:20:00,106.8,-2.9
2023/02/15 10:30:00,106.9,-1.0
2023/02/15 10:40:00,106.9,-1.9
2023/02/15 10:50:00,107.0,-1.1
2023/02/15 11:00:00,107.3,-2.9
2023/02/15 11:10:00,107.9,-2.7
2023/02/15 11:20:00,108.4,-2.6
2023/02/15 11:30:00,108.4,-2.1
2023/02/15 11:40:00,108.4,-2.4
2023/02/15 11:50:00,108.9,-1.8
2023/02/15 12:00:00,109.0,-1.5
2023/02/15 12:10:00,109.3,-1.6
2023/02/15 12:20:00,109.4,-0.8
2023/02/15 12:30:00,109.4,-1.2
2023/02/15 12:40:00,109.5,-2.5
2023/02/15 12:50:00,109.6,-2.2
2023/02/15 13:00:00,109.9,-2.6
2023/02/15 13:10:00,110.2, 0.5
2023/02/15 13:20:00,110.1,-1.2
2023/02/15 13:30:00,109.7,-1.8
2023/02/15 13:40:00,109.9,-1.1
2023/02/15 13:50:00,109.8,-1.7
2023/02/15 14:00:00,109.7,-2.2
2023/02/15 14:10:00,109.7,-2.1
2023/02/15 14:20:00,109.6,-2.6
2023/02/15 14:30:00,109.5,-3.3
2023/02/15 14:40:00,109.9,-3.2
2023/02/15 14:50:00,109.8,-3.3
2023/02/15 15:00:00,109.8,-3.7
2023/02/15 15:10:00,109.6,-3.8
2023/02/15 15:20:00,109.5,-4.1
2023/02/15 15:30:00,109.5,-4.0
2023/02/15 15:40:00,109.4,-3.9
2023/02/15 15:50:00,109.3,-4.2
2023/02/15 16:00:00,109.4,-4.3
2023/02/15 16:10:00,109.5,-4.4
2023/02/15 16:20:00,109.5,-4.6
2023/02/15 16:30:00,109.7,-4.7
2023/02/15 16:40:00,109.6,-4.8
2023/02/15 16:50:00,109.6,-5.0
2023/02/15 17:00:00,109.9,-4.8
2023/02/15 17:10:00,109.9,-5.1
2023/02/15 17:20:00,110.0,-4.9
2023/02/15 17:30:00,110.4,-5.2
2023/02/15 17:40:00,110.7,-5.4
2023/02/15 17:50:00,111.0,-5.7
2023/02/15 18:00:00,110.8,-5.7
2023/02/15 18:10:00,110.6,-5.6
2023/02/15 18:20:00,110.6,-5.6
2023/02/15 18:30:00,111.0,-5.7
2023/02/15 18:40:00,111.0,-5.6
2023/02/15 18:50:00,110.8,-5.6
2023/02/15 19:00:00,110.7,-5.6
2023/02/15 19:10:00,110.8,-5.7
2023/02/15 19:20:00,110.7,-5.7
2023/02/15 19:30:00,110.3,-5.8
2023/02/15 19:40:00,110.1,-5.7
2023/02/15 19:50:00,110.2,-5.8
2023/02/15 20:00:00,110.2,-5.6
2023/02/15 20:10:00,109.9,-5.6
2023/02/15 20:20:00,109.9,-5.6
2023/02/15 20:30:00,109.8,-5.8
2023/02/15 20:40:00,109.7,-5.6
2023/02/15 20:50:00,109.6,-5.4
2023/02/15 21:00:00,109.5,-5.4
2023/02/15 21:10:00,109.4,-5.6
2023/02/15 21:20:00,109.3,-5.6
2023/02/15 21:30:00,109.2,-5.3
2023/02/15 21:40:00,109.2,-5.4
2023/02/15 21:50:00,109.1,-5.9
2023/02/15 22:00:00,109.1,-5.7
2023/02/15 22:10:00,109.0,-5.5
2023/02/15 22:20:00,108.9,-5.7
2023/02/15 22:30:00,108.8,-5.6
2023/02/15 22:40:00,108.8,-5.6
2023/02/15 22:50:00,108.7,-5.4
2023/02/15 23:00:00,108.6,-5.5
2023/02/15 23:10:00,108.6,-5.5
2023/02/15 23:20:00,108.5,-5.5
2023/02/15 23:30:00,108.4,-5.4
2023/02/15 23:40:00,108.3,-5.2
2023/02/15 23:50:00,108.2,-5.2
